QPF
0.00 0.00 0.00 0.00 0.00 0.00 0.00 0.00 0.00 0.00 0.00 0.00 0.00 0.00 0.00 0.00 0.00 0.00 0.00 0.00 0.00 0.00 0.00 0.00 0.00 0.00 0.00 0.00 0.00 0.00 0.00 0.00 0.00 0.00 0.00 0.00 0.00 0.00 0.00 0.00 0.00 0.00 0.00 0.00
0.00 0.00 0.00 0.00 0.00 0.00 0.00 0.00 0.00 0.00 0.00 0.00 0.00 0.00 0.00 0.00 0.00 0.00 0.00 0.00 0.00 0.00 0.00 0.00 0.00 0.00 0.00 0.00 0.00 0.00 0.00 0.00 0.00 0.00 0.00 0.00 0.00 0.00 0.00 0.00 0.00 0.00 0.00 0.00
0.00 0.00 0.00 0.00 0.00 0.00 0.00 0.00 0.00 0.00 0.00 0.00 0.00 0.00 0.00 0.00 0.00 0.00 0.00 0.00 0.00 0.00 0.00 0.00 0.00 0.00 0.00 0.00 0.00 0.00 0.00 0.00 0.00 0.00 0.00 0.00 0.00 0.00 0.00 0.00 0.00 0.00 0.00 0.00
0.00 0.00 0.00 0.00 0.00 0.00 0.00 0.00 0.00 0.00 0.00 0.00 0.00 0.00 0.00 0.00 0.00 0.00 0.00 0.00 0.00 0.00 0.00 0.00 0.00 0.00 0.00 0.00 0.00 0.00 0.00 0.00 0.00 0.00 0.00 0.00 0.00 0.00 0.00 0.00 0.00 0.00 0.00 0.00
0.00 0.00 0.00 0.00 0.00 0.00 0.00 0.00 0.00 0.00 0.00 0.00 0.00 0.00 0.00 0.00 0.00 0.00 0.00 0.00 0.00 0.00 0.00 0.00 0.00 0.00 0.00 0.00 0.00 0.00 0.00 0.00 0.00 0.00 0.00 0.00 0.00 0.00 0.00 0.00 0.00 0.00 0.00 0.00
0.00 0.00 0.00 0.00 0.00 0.00 0.00 0.00 0.00 0.00 0.00 0.00 0.00 0.00 0.00 0.00 0.00 0.00 0.00 0.00 0.00 0.00 0.00 0.00 0.00 0.00 0.00 0.00 0.00 0.00 0.00 0.00 0.00 0.00 0.00 0.00 0.00 0.00 0.00 0.00 0.00 0.00 0.00 0.00
0.00 0.00 0.00 0.00 0.00 0.00 0.00 0.00 0.00 0.00 0.00 0.00 0.00 0.00 0.00 0.00 0.00 0.00 0.00 0.00 0.00 0.00 0.00 0.00 0.00 0.00 0.00 0.00 0.00 0.00 0.00 0.00 0.00 0.00 0.00 0.00 0.00 0.00 0.00 0.00 0.00 0.00 0.00 0.00
0.00 0.00 0.00 0.00 0.00 0.00 0.00 0.00 0.00 0.00 0.00 0.00 0.00 0.00 0.00 0.00 0.00 0.00 0.00 0.00 0.00 0.00 0.00 0.00 0.00 0.00 0.00 0.00 0.00 0.00 0.00 0.00 0.00 0.00 0.00 0.00 0.00 0.00 0.00 0.00 0.00 0.00 0.00 0.00
0.00 0.00 0.00 0.00 0.00 0.00 0.00 0.00 0.00 0.00 0.00 0.00 0.00 0.00 0.00 0.00 0.00 0.00 0.00 0.00 0.00 0.00 0.00 0.00 0.00 0.00 0.00 0.00 0.00 0.00 0.00 0.00 0.00 0.00 0.00 0.00 0.00 0.00 0.00 0.00 0.00 0.02 0.04 0.01
0.00 0.00 0.00 0.00 0.00 0.00 0.00 0.00 0.00 0.00 0.00 0.00 0.00 0.00 0.00 0.00 0.00 0.00 0.00 0.00 0.00 0.00 0.00 0.00 0.00 0.00 0.00 0.00 0.01 0.00 0.00 0.00 0.00 0.00 0.00 0.00 0.00 0.00 0.00 0.00 0.00 0.01 0.04 0.06
0.00 0.00 0.00 0.00 0.00 0.00 0.00 0.00 0.00 0.00 0.00 0.00 0.00 0.00 0.00 0.00 0.00 0.00 0.00 0.00 0.00 0.00 0.00 0.00 0.00 0.00 0.00 0.00 0.00 0.02 0.03 0.01 0.04 0.07 0.12 0.06 0.01 0.00 0.01 0.02 0.03 0.04 0.06 0.07
0.00 0.00 0.00 0.00 0.00 0.00 0.00 0.00 0.00 0.00 0.00 0.00 0.00 0.00 0.00 0.00 0.00 0.00 0.00 0.00 0.00 0.00 0.00 0.00 0.00 0.00 0.00 0.00 0.00 0.00 0.02 0.01 0.03 0.09 0.14 0.11 0.06 0.04 0.05 0.08 0.07 0.05 0.06 0.06
0.00 0.00 0.00 0.00 0.00 0.00 0.00 0.00 0.00 0.00 0.00 0.00 0.00 0.00 0.00 0.00 0.00 0.00 0.00 0.00 0.00 0.00 0.00 0.00 0.00 0.00 0.00 0.00 0.00 0.00 0.01 0.00 0.01 0.01 0.03 0.05 0.06 0.05 0.03 0.02 0.02 0.02 0.03 0.05
0.00 0.00 0.00 0.00 0.00 0.00 0.00 0.00 0.00 0.00 0.00 0.00 0.00 0.00 0.00 0.00 0.00 0.00 0.00 0.00 0.00 0.00 0.00 0.00 0.00 0.00 0.00 0.00 0.00 0.00 0.00 0.00 0.00 0.00 0.00 0.01 0.03 0.04 0.04 0.03 0.01 0.05 0.07 0.02
0.00 0.00 0.00 0.00 0.00 0.00 0.00 0.00 0.00 0.00 0.00 0.00 0.00 0.00 0.00 0.00 0.00 0.00 0.00 0.00 0.00 0.00 0.00 0.00 0.00 0.00 0.00 0.00 0.00 0.00 0.00 0.00 0.00 0.00 0.00 0.01 0.02 0.04 0.02 0.01 0.01 0.04 0.07 0.10
0.00 0.00 0.00 0.00 0.00 0.00 0.00 0.00 0.00 0.00 0.00 0.00 0.00 0.00 0.00 0.00 0.00 0.00 0.00 0.00 0.00 0.00 0.00 0.00 0.00 0.00 0.00 0.00 0.00 0.00 0.00 0.00 0.00 0.00 0.00 0.01 0.02 0.03 0.04 0.02 0.02 0.03 0.04 0.05
0.00 0.00 0.00 0.00 0.00 0.00 0.00 0.00 0.00 0.00 0.00 0.00 0.00 0.00 0.00 0.00 0.00 0.00 0.00 0.00 0.00 0.00 0.00 0.00 0.00 0.00 0.00 0.00 0.00 0.00 0.00 0.00 0.00 0.00 0.01 0.01 0.02 0.03 0.02 0.03 0.02 0.04 0.06 0.02
0.00 0.00 0.00 0.00 0.00 0.00 0.00 0.00 0.00 0.00 0.00 0.00 0.00 0.00 0.00 0.00 0.00 0.00 0.00 0.00 0.00 0.00 0.00 0.00 0.00 0.00 0.00 0.00 0.00 0.00 0.00 0.00 0.00 0.00 0.00 0.01 0.01 0.02 0.03 0.03 0.04 0.03 0.01 0.00
0.00 0.00 0.00 0.00 0.00 0.00 0.00 0.00 0.00 0.00 0.00 0.00 0.00 0.00 0.00 0.00 0.00 0.00 0.00 0.00 0.00 0.00 0.00 0.00 0.00 0.00 0.00 0.00 0.00 0.00 0.00 0.00 0.00 0.00 0.00 0.01 0.02 0.02 0.02 0.01 0.00 0.00 0.00 0.00
0.00 0.00 0.00 0.00 0.00 0.00 0.00 0.00 0.00 0.00 0.00 0.00 0.00 0.00 0.00 0.00 0.00 0.00 0.00 0.00 0.00 0.00 0.00 0.00 0.00 0.00 0.00 0.00 0.00 0.00 0.00 0.00 0.00 0.01 0.01 0.01 0.01 0.01 0.00 0.00 0.00 0.00 0.00 0.00
0.00 0.00 0.00 0.00 0.00 0.00 0.00 0.00 0.00 0.00 0.00 0.00 0.00 0.00 0.00 0.00 0.00 0.00 0.00 0.00 0.00 0.00 0.00 0.00 0.00 0.00 0.00 0.00 0.00 0.00 0.00 0.00 0.00 0.01 0.00 0.00 0.00 0.00 0.00 0.00 0.00 0.00 0.00 0.00
0.00 0.00 0.00 0.00 0.00 0.00 0.00 0.00 0.00 0.00 0.00 0.00 0.00 0.00 0.00 0.00 0.00 0.00 0.00 0.00 0.00 0.00 0.00 0.00 0.00 0.00 0.00 0.00 0.00 0.00 0.00 0.00 0.00 0.00 0.00 0.00 0.00 0.00 0.00 0.00 0.00 0.00 0.00 0.00
0.00 0.00 0.00 0.00 0.00 0.00 0.00 0.00 0.00 0.00 0.00 0.00 0.00 0.00 0.00 0.00 0.00 0.00 0.00 0.00 0.00 0.00 0.00 0.00 0.00 0.00 0.00 0.00 0.00 0.00 0.00 0.00 0.00 0.00 0.00 0.00 0.00 0.00 0.00 0.00 0.00 0.00 0.00 0.00
0.00 0.00 0.00 0.00 0.00 0.00 0.00 0.00 0.00 0.00 0.00 0.00 0.00 0.00 0.00 0.00 0.00 0.00 0.00 0.00 0.00 0.00 0.00 0.00 0.00 0.00 0.00 0.00 0.00 0.00 0.00 0.00 0.00 0.00 0.00 0.00 0.00 0.00 0.00 0.00 0.00 0.00 0.00 0.00
0.00 0.00 0.01 0.00 0.00 0.00 0.00 0.00 0.00 0.00 0.00 0.00 0.00 0.00 0.00 0.00 0.00 0.00 0.00 0.00 0.00 0.00 0.00 0.00 0.00 0.00 0.00 0.00 0.00 0.00 0.00 0.00 0.00 0.00 0.00 0.00 0.00 0.00 0.00 0.00 0.00 0.00 0.00 0.00
0.01 0.01 0.04 0.01 0.02 0.00 0.00 0.00 0.00 0.00 0.00 0.00 0.00 0.00 0.00 0.01 0.01 0.01 0.01 0.01 0.00 0.00 0.00 0.00 0.00 0.00 0.00 0.00 0.00 0.00 0.00 0.00 0.00 0.00 0.00 0.00 0.00 0.00 0.00 0.00 0.00 0.00 0.00 0.00
MSLP
1008.90 1009.36 1009.09 1009.31 1009.81 1010.20 1010.12 1010.24 1010.15 1009.09 1008.26 1008.83 1008.65 1009.26 1009.20 1009.86 1010.33 1010.60 1010.67 1010.86 1011.12 1011.22 1011.79 1012.51 1012.88 1013.55 1013.99 1014.28 1014.80 1015.09 1015.31 1015.82 1016.17 1016.57 1016.65 1017.12 1017.44 1017.73 1018.01 1018.12 1018.37 1018.60 1018.53 1018.55
1009.12 1008.08 1008.76 1009.11 1009.56 1010.10 1010.35 1010.35 1009.80 1008.84 1007.85 1008.35 1008.00 1008.78 1008.77 1009.32 1009.17 1009.56 1010.08 1010.28 1010.37 1010.91 1011.45 1012.02 1012.77 1013.41 1013.76 1013.99 1014.40 1014.77 1015.24 1015.59 1015.95 1016.21 1016.39 1016.95 1017.49 1017.55 1017.75 1017.80 1017.64 1018.23 1018.37 1018.14
1008.31 1007.82 1007.61 1008.66 1009.13 1009.60 1009.74 1009.85 1009.30 1009.01 1008.02 1008.03 1008.41 1008.71 1008.68 1008.62 1008.86 1009.16 1009.22 1009.39 1009.86 1010.13 1010.82 1011.50 1012.17 1012.89 1013.46 1013.70 1014.21 1014.60 1014.95 1015.27 1015.74 1016.22 1016.89 1017.29 1017.76 1017.79 1017.90 1017.76 1018.01 1018.36 1018.14 1018.29
1008.26 1007.43 1007.68 1008.30 1008.47 1008.73 1009.01 1008.47 1008.63 1008.58 1008.70 1008.51 1008.09 1008.72 1008.41 1008.13 1008.11 1008.27 1008.22 1008.52 1008.76 1009.32 1010.02 1010.78 1011.53 1012.50 1012.74 1013.21 1013.87 1014.25 1014.58 1015.01 1015.56 1016.24 1016.62 1017.05 1017.40 1017.45 1017.76 1017.80 1017.79 1017.74 1017.80 1018.05
1007.02 1006.90 1007.15 1007.57 1007.09 1007.87 1007.72 1007.56 1008.23 1008.28 1008.54 1008.47 1008.26 1008.77 1007.65 1007.74 1007.77 1007.16 1007.13 1007.16 1007.47 1007.98 1008.60 1009.49 1010.23 1011.02 1011.87 1012.65 1013.18 1013.78 1014.19 1014.50 1015.08 1015.86 1016.18 1016.57 1017.19 1017.02 1017.12 1017.46 1017.63 1017.72 1017.76 1017.84
1006.74 1006.28 1006.43 1006.27 1006.32 1006.93 1006.85 1007.38 1007.65 1008.04 1008.52 1008.67 1008.00 1008.04 1007.54 1006.99 1005.96 1005.53 1005.72 1005.92 1006.26 1006.94 1007.65 1008.44 1009.46 1010.81 1011.48 1012.21 1012.67 1013.21 1013.75 1014.24 1014.68 1015.03 1015.38 1015.80 1016.15 1016.47 1016.95 1017.23 1017.39 1017.32 1017.29 1017.56
1006.67 1006.08 1005.99 1005.89 1006.17 1006.28 1006.85 1007.65 1008.68 1008.64 1008.72 1008.22 1007.72 1007.82 1006.36 1005.13 1004.52 1004.30 1004.23 1004.40 1004.92 1005.79 1006.91 1007.82 1008.71 1009.68 1010.63 1011.46 1012.03 1012.48 1012.92 1013.30 1013.83 1014.31 1014.50 1014.84 1015.26 1015.72 1016.07 1016.27 1016.38 1016.79 1016.94 1017.07
1006.43 1006.23 1005.63 1005.17 1005.38 1005.49 1006.12 1007.05 1008.40 1008.49 1008.84 1008.50 1007.82 1006.90 1005.14 1003.78 1003.26 1003.04 1003.24 1003.03 1003.90 1004.86 1005.86 1006.83 1007.46 1008.22 1009.25 1010.13 1010.98 1011.49 1011.93 1012.33 1012.75 1013.28 1013.80 1014.19 1014.43 1014.91 1015.39 1015.47 1015.98 1016.05 1016.23 1016.16
1006.22 1005.97 1004.73 1004.41 1004.57 1005.13 1005.35 1006.26 1006.68 1007.84 1008.63 1008.64 1007.47 1006.01 1004.39 1003.41 1003.12 1002.92 1002.74 1002.76 1003.48 1003.94 1004.81 1005.56 1006.57 1007.33 1008.17 1008.89 1009.53 1010.19 1010.64 1011.13 1011.66 1011.92 1012.34 1012.94 1013.63 1014.04 1014.18 1014.97 1015.34 1015.66 1015.73 1015.85
1005.75 1005.75 1004.87 1004.19 1004.14 1004.52 1004.53 1005.46 1006.50 1007.81 1008.55 1008.34 1007.02 1005.92 1004.34 1003.34 1002.84 1002.53 1002.36 1002.51 1002.92 1003.09 1003.76 1004.34 1005.49 1006.30 1006.93 1007.46 1008.09 1009.27 1009.70 1009.82 1010.11 1011.19 1011.83 1012.19 1012.74 1013.26 1013.75 1014.38 1014.76 1015.13 1015.43 1015.60
1005.90 1005.85 1005.48 1004.77 1004.45 1004.56 1004.97 1005.27 1006.01 1006.87 1007.57 1007.44 1006.81 1004.90 1003.12 1002.48 1002.13 1002.39 1002.18 1001.70 1001.93 1002.41 1002.81 1003.30 1003.69 1004.74 1005.46 1006.24 1007.30 1007.99 1008.94 1009.09 1009.71 1010.03 1010.57 1011.47 1011.97 1012.79 1013.65 1014.02 1014.02 1014.14 1014.50 1014.79
1006.89 1006.56 1006.01 1005.23 1004.98 1004.62 1004.80 1005.12 1005.55 1006.19 1006.83 1006.59 1005.83 1003.05 1002.13 1001.72 1001.61 1001.89 1001.72 1001.58 1001.12 1001.36 1001.88 1002.44 1002.95 1003.40 1004.54 1005.17 1006.00 1006.70 1007.19 1007.88 1008.23 1008.97 1009.70 1010.14 1011.01 1011.58 1012.09 1012.21 1012.05 1012.66 1012.82 1013.15
1007.08 1007.53 1007.19 1006.03 1005.47 1005.02 1004.89 1004.84 1005.29 1005.68 1006.02 1005.08 1005.29 1002.50 1001.58 1001.25 1001.23 1001.11 1001.19 1000.96 1000.49 1000.92 1001.27 1001.62 1002.32 1002.88 1003.21 1003.89 1004.80 1005.49 1006.02 1006.26 1006.91 1008.03 1008.46 1009.18 1009.65 1010.26 1009.95 1009.91 1010.39 1010.95 1011.84 1012.57
1007.96 1008.40 1008.69 1008.66 1008.36 1007.87 1006.63 1005.76 1004.86 1004.87 1004.92 1004.71 1003.20 1002.75 1001.84 1001.31 1001.05 1000.92 1000.74 1000.66 1000.54 1000.07 1000.86 1001.03 1001.54 1001.94 1002.19 1002.77 1003.27 1003.97 1004.41 1004.71 1005.65 1006.53 1007.15 1007.73 1008.13 1008.42 1008.86 1009.25 1010.05 1010.43 1010.92 1011.52
1008.84 1009.45 1009.59 1009.41 1008.84 1007.92 1007.09 1005.95 1004.84 1004.05 1003.19 1002.97 1002.54 1001.90 1001.37 1000.78 1000.37 1000.14 999.96 1000.08 1000.30 1000.08 1000.43 1000.72 1001.02 1001.10 1001.60 1002.20 1002.56 1002.95 1003.12 1003.74 1004.60 1005.42 1006.01 1006.25 1006.98 1007.57 1008.22 1008.85 1009.34 1010.10 1010.53 1011.03
1009.45 1010.00 1010.30 1009.57 1008.96 1008.07 1006.97 1005.78 1004.74 1003.76 1003.13 1002.40 1001.84 1000.89 1000.29 999.82 999.67 999.80 999.61 999.61 999.80 999.90 999.77 999.92 1000.38 1000.86 1000.92 1001.39 1001.65 1002.07 1002.63 1002.98 1003.61 1004.24 1004.88 1005.83 1006.66 1007.46 1007.82 1008.55 1009.24 1009.81 1010.52 1011.06
1010.16 1010.46 1010.91 1010.64 1009.62 1008.21 1006.49 1005.84 1004.59 1003.21 1002.08 1001.61 1001.07 1000.49 999.80 999.63 999.51 999.37 999.04 999.11 999.22 999.06 999.20 999.35 999.85 1000.17 1000.31 1000.62 1000.85 1001.51 1002.25 1002.51 1003.26 1004.01 1004.72 1005.50 1006.30 1006.95 1007.65 1008.52 1009.24 1009.86 1010.55 1011.23
1010.68 1011.23 1011.55 1010.60 1009.53 1007.83 1005.13 1004.44 1004.09 1003.14 1001.91 1001.00 1000.24 999.96 999.55 999.01 998.65 998.23 998.06 998.20 998.25 998.33 998.62 998.75 998.61 999.44 999.92 1000.48 1001.37 1001.85 1002.55 1002.79 1003.36 1004.31 1004.89 1005.53 1006.35 1007.11 1007.87 1008.56 1009.27 1009.93 1010.65 1011.06
1009.89 1010.77 1011.23 1010.99 1009.85 1007.49 1005.41 1004.14 1003.49 1004.76 1002.68 1001.77 999.89 999.30 998.99 998.48 998.36 997.62 997.56 997.35 997.30 997.14 997.16 997.37 997.64 998.41 999.44 1000.21 1001.22 1002.06 1002.78 1003.14 1003.75 1004.70 1005.23 1005.88 1006.54 1007.44 1008.14 1008.62 1009.22 1009.98 1010.56 1011.44
1010.17 1010.48 1010.90 1011.00 1009.93 1007.52 1003.42 1003.05 1003.00 1003.80 1002.58 1001.34 1000.65 999.60 998.59 998.35 998.14 997.48 997.00 996.77 996.65 996.76 996.96 997.35 997.97 998.70 999.44 1000.28 1001.05 1002.13 1003.00 1003.30 1004.24 1005.15 1005.72 1006.25 1006.99 1007.67 1008.58 1009.38 1010.11 1010.80 1011.53 1012.43
1010.60 1010.78 1010.46 1010.06 1009.19 1006.40 1003.96 1003.13 1002.42 1004.39 1003.68 1002.11 1000.99 1000.20 999.32 998.28 997.03 996.38 996.40 996.68 996.39 996.82 997.13 997.55 998.25 998.85 999.64 1000.32 1001.09 1002.32 1003.01 1004.00 1004.85 1005.63 1006.19 1006.87 1007.48 1008.22 1009.04 1009.98 1010.88 1011.78 1012.76 1013.64
1009.69 1010.13 1009.97 1009.41 1008.39 1006.36 1003.52 1003.48 1002.90 1003.36 1003.30 1002.72 1001.51 1000.13 999.02 998.04 997.13 996.66 996.65 996.91 996.72 996.94 997.39 997.89 998.70 999.42 1000.27 1000.85 1001.51 1002.78 1003.82 1004.67 1005.52 1006.29 1007.04 1007.74 1008.40 1009.18 1010.02 1010.84 1011.92 1012.62 1013.49 1014.59
1008.37 1007.63 1007.76 1007.24 1005.30 1003.80 1003.32 1002.27 1002.27 1002.13 1002.48 1001.87 1001.62 1000.40 999.01 998.08 997.31 997.36 997.16 997.35 997.15 997.05 997.61 998.22 998.84 1000.13 1000.88 1001.49 1002.04 1003.16 1004.50 1005.08 1005.85 1006.92 1008.26 1008.92 1009.49 1010.26 1010.99 1011.74 1012.72 1013.65 1014.42 1015.24
1007.03 1006.49 1006.74 1006.22 1003.99 1003.26 1002.50 1002.15 1002.02 1001.67 1001.37 1001.65 1000.99 999.96 999.11 998.78 998.18 998.04 997.66 998.16 999.01 999.14 998.94 999.42 1000.02 1001.00 1001.99 1002.43 1003.18 1004.28 1005.21 1006.02 1006.90 1007.93 1009.34 1010.42 1010.93 1011.72 1012.56 1013.28 1013.87 1014.54 1015.32 1016.05
1006.62 1006.36 1006.08 1005.38 1004.29 1003.67 1002.54 1001.90 1001.26 1001.17 1001.00 1001.34 1000.57 1000.16 999.50 998.93 998.38 998.21 998.36 998.71 999.34 1000.22 1000.74 1000.94 1001.51 1002.20 1003.32 1003.70 1004.33 1005.19 1005.91 1006.84 1008.32 1009.33 1010.32 1011.46 1012.19 1012.90 1013.79 1014.65 1015.31 1015.69 1016.16 1016.27
1007.01 1007.00 1006.81 1005.76 1005.39 1004.98 1003.30 1002.66 1001.85 1001.05 1001.18 1000.92 1000.84 1000.03 999.48 998.85 998.39 998.29 999.48 999.72 999.99 1000.81 1002.08 1002.67 1003.44 1003.78 1004.63 1005.22 1005.93 1006.52 1007.01 1007.76 1008.87 1010.28 1011.41 1012.40 1013.13 1013.96 1014.63 1015.27 1016.27 1016.87 1017.14 1017.41
Thickness
5649 5638 5639 5642 5642 5642 5645 5638 5631 5641 5654 5649 5646 5640 5651 5648 5649 5645 5643 5643 5640 5641 5636 5626 5626 5619 5615 5610 5603 5602 5600 5596 5595 5593 5593 5591 5590 5591 5590 5592 5591 5587 5591 5595
5637 5645 5649 5645 5644 5636 5633 5629 5631 5645 5656 5646 5648 5640 5650 5648 5655 5653 5646 5644 5646 5643 5637 5632 5624 5621 5617 5616 5610 5606 5604 5601 5597 5598 5597 5593 5588 5590 5591 5591 5593 5589 5593 5598
5633 5650 5657 5643 5639 5635 5632 5627 5633 5636 5649 5649 5642 5637 5642 5653 5654 5653 5654 5653 5650 5648 5642 5637 5631 5624 5618 5617 5613 5610 5607 5607 5602 5597 5590 5588 5586 5589 5588 5591 5592 5590 5595 5596
5626 5652 5647 5636 5639 5638 5626 5644 5641 5639 5635 5622 5642 5609 5639 5644 5650 5654 5659 5657 5656 5654 5650 5644 5637 5627 5624 5620 5616 5614 5612 5610 5606 5597 5594 5591 5591 5593 5590 5591 5594 5595 5595 5593
5633 5641 5639 5633 5650 5641 5641 5648 5638 5637 5629 5633 5634 5615 5635 5641 5642 5655 5661 5665 5665 5663 5661 5653 5648 5640 5633 5627 5623 5618 5615 5615 5609 5601 5600 5598 5592 5597 5596 5593 5593 5594 5594 5592
5631 5649 5641 5642 5651 5642 5656 5644 5642 5635 5624 5608 5634 5622 5621 5635 5654 5665 5670 5673 5672 5669 5665 5661 5654 5642 5636 5631 5628 5622 5618 5615 5611 5608 5606 5604 5604 5601 5596 5593 5593 5594 5595 5591
5625 5633 5643 5647 5638 5647 5642 5630 5601 5603 5601 5609 5635 5617 5629 5656 5663 5670 5675 5681 5680 5675 5666 5660 5655 5649 5641 5634 5631 5628 5625 5622 5618 5614 5614 5612 5607 5603 5600 5599 5599 5595 5595 5595
5606 5604 5631 5645 5640 5639 5633 5626 5594 5600 5592 5614 5628 5614 5638 5664 5674 5680 5682 5691 5685 5679 5671 5664 5661 5657 5649 5643 5636 5633 5629 5626 5623 5619 5615 5612 5611 5606 5600 5602 5596 5598 5596 5598
5594 5602 5639 5644 5646 5642 5632 5615 5638 5613 5601 5595 5615 5631 5654 5665 5667 5673 5679 5684 5680 5682 5676 5670 5663 5659 5653 5648 5644 5638 5635 5631 5628 5627 5624 5618 5613 5610 5609 5600 5598 5593 5595 5595
5606 5597 5626 5639 5641 5638 5636 5640 5617 5599 5592 5590 5611 5621 5632 5660 5665 5673 5675 5679 5681 5687 5682 5678 5668 5662 5659 5655 5651 5642 5639 5638 5636 5627 5623 5620 5614 5609 5604 5598 5595 5592 5589 5588
5600 5600 5607 5623 5618 5618 5621 5617 5621 5618 5597 5602 5604 5614 5650 5662 5665 5666 5671 5680 5683 5684 5686 5683 5681 5671 5666 5661 5653 5647 5640 5639 5634 5631 5626 5617 5612 5605 5597 5594 5593 5591 5589 5587
5580 5583 5582 5605 5620 5627 5625 5619 5618 5605 5602 5596 5593 5636 5667 5666 5665 5664 5667 5677 5685 5685 5686 5685 5682 5679 5669 5664 5659 5653 5649 5643 5640 5634 5627 5622 5612 5605 5602 5602 5601 5597 5594 5593
5574 5565 5564 5587 5605 5610 5606 5615 5617 5611 5601 5611 5596 5630 5668 5669 5666 5668 5670 5675 5683 5679 5682 5683 5680 5676 5675 5671 5663 5658 5653 5651 5645 5635 5630 5623 5619 5612 5613 5612 5607 5604 5595 5589
5558 5555 5557 5556 5559 5565 5575 5592 5614 5615 5593 5598 5615 5629 5651 5658 5659 5663 5667 5671 5674 5683 5678 5678 5678 5678 5679 5674 5671 5665 5660 5657 5650 5642 5635 5629 5625 5622 5618 5614 5606 5602 5595 5591
5545 5539 5542 5544 5554 5568 5571 5585 5600 5606 5618 5609 5621 5622 5643 5653 5659 5664 5667 5668 5669 5671 5672 5674 5673 5675 5676 5672 5670 5667 5665 5660 5652 5643 5638 5635 5629 5622 5616 5609 5604 5595 5593 5589
5530 5531 5528 5537 5554 5555 5567 5582 5590 5601 5606 5603 5615 5619 5645 5658 5660 5660 5662 5664 5664 5666 5670 5675 5672 5671 5674 5673 5672 5667 5662 5658 5653 5646 5639 5631 5622 5614 5610 5603 5596 5591 5584 5579
5517 5511 5515 5520 5532 5545 5554 5572 5582 5600 5613 5611 5604 5622 5645 5645 5649 5653 5660 5660 5663 5669 5669 5671 5667 5672 5674 5674 5671 5664 5656 5654 5647 5641 5634 5627 5619 5613 5605 5596 5589 5583 5577 5569
5497 5495 5490 5509 5521 5524 5577 5575 5582 5587 5607 5618 5624 5627 5635 5644 5653 5660 5664 5664 5666 5668 5667 5668 5675 5670 5669 5664 5657 5652 5647 5645 5639 5631 5625 5618 5609 5601 5593 5588 5581 5574 5567 5563
5510 5496 5494 5490 5497 5529 5557 5574 5575 5544 5573 5595 5617 5630 5635 5644 5647 5652 5661 5665 5670 5675 5678 5678 5679 5672 5663 5658 5650 5643 5638 5635 5630 5619 5612 5605 5597 5589 5582 5577 5571 5562 5557 5548
5501 5498 5480 5490 5482 5495 5580 5582 5571 5561 5567 5597 5599 5611 5629 5638 5622 5640 5663 5665 5667 5671 5672 5671 5666 5660 5656 5649 5644 5634 5627 5625 5616 5606 5599 5594 5586 5579 5569 5560 5553 5545 5537 5528
5482 5479 5497 5497 5494 5513 5557 5568 5569 5540 5557 5580 5593 5597 5607 5623 5643 5656 5658 5657 5664 5662 5661 5658 5655 5654 5647 5639 5634 5623 5618 5609 5598 5590 5585 5579 5572 5563 5553 5544 5535 5526 5516 5506
5484 5482 5480 5493 5492 5508 5547 5552 5553 5548 5552 5564 5579 5594 5606 5619 5629 5640 5645 5644 5649 5650 5649 5647 5641 5635 5628 5624 5620 5608 5599 5591 5582 5575 5567 5560 5552 5544 5535 5526 5516 5508 5498 5487
5484 5493 5481 5499 5510 5536 5538 5553 5549 5552 5552 5561 5568 5587 5603 5612 5622 5626 5629 5631 5638 5642 5639 5638 5631 5618 5613 5609 5605 5593 5582 5577 5570 5559 5546 5539 5533 5524 5516 5508 5498 5487 5480 5471
5498 5504 5498 5504 5535 5535 5540 5543 5546 5551 5554 5557 5566 5580 5592 5599 5608 5613 5618 5614 5610 5613 5617 5615 5611 5602 5593 5590 5584 5574 5566 5558 5550 5540 5525 5513 5508 5499 5490 5482 5476 5468 5460 5452
5489 5496 5504 5511 5527 5528 5538 5540 5546 5551 5553 5553 5563 5571 5582 5591 5599 5605 5606 5604 5601 5595 5592 5591 5587 5581 5570 5569 5563 5555 5548 5540 5524 5513 5503 5491 5483 5476 5467 5457 5450 5444 5438 5434
5470 5478 5480 5489 5503 5500 5526 5529 5536 5547 5547 5552 5556 5568 5577 5587 5593 5596 5585 5588 5586 5581 5571 5566 5560 5557 5550 5544 5537 5532 5527 5519 5507 5493 5482 5472 5464 5455 5447 5440 5429 5421 5415 5410